sat.trackr.live / text

‹ back to catalog

STARLINK-30327

NORAD 57707 · 2023-129K

PAYLOAD ACTIVE UNKNOWN

§ Identity

Operator
Country
US
Launch date
2023-08-27
Launch site
AFETR
Launch vehicle
Mass (kg)
RCS (m²)

Purposes: comms

External: N2YO · Heavens-Above · Gunter

§ Orbital elements

Epoch: 2026-09-20T22:00:03.000096Z

Period
91.97 min
Inclination
42.9855°
Eccentricity
0.0035441
Mean motion
15.65713140 rev/d
Perigee alt
347.3 km
Apogee alt
395.1 km
Semi-major
6,749.3 km
B*
3.1398e-3
RAAN
39.9958°
Arg perigee
322.2623°
Mean anomaly
76.1362°
Rev number
594

§ Raw data

STARLINK-303271 57707U 23129K   26263.91670139  .00350923  00000+0  31398-2 0  99952 57707  42.9855  39.9958 0035441 322.2623  76.1362 15.65713140  5947

JSON: /api/v1/satellites/57707 · /tle

For live sub-satellite position, see the globe view (requires WebGL).

§ Visibility from observer

Set your observer location to see the next 7 days of passes ≥ 10°. The values pass through the URL so the page stays shareable.

No JS? Fill the form by hand. The geolocation button needs JavaScript.